Notices

What's New in latest Release from April 7th, 2021:

- Updated Glossary, including Speed of Maximum Gust, and Total Hourly Precipitation

- Updated national and regional climate services offices contacts and prices information

- Addition of station inventory lists for 1981-2010, 1971-2000, and 1961-1990 Normals.

If you haven't already, please take our survey and provide feedback about our website: https://eccc.sondage-survey.ca/f/LanguageSelection.aspx?s=442ca660-fcf1-47c0-95a9-59707d6fd709

Hourly Data Report for September 30, 2017

VICTORIA UNIVERSITY CS
BRITISH COLUMBIA

48°27'25.200" N
123°18'16.600" W
60.10 m
1018598
71783
WYJ

Download Data

Hourly Data (September 2017)
Hourly Data Report for September 30, 2017
TIME
LST
Temp Definition
°C
Dew Point Definition
°C
Rel Hum Definition
%
Precip. Amount Definition
mm

Wind Dir Definition
10's deg

Wind Spd Definition
km/h
Visibility Definition
km
Stn Press Definition
kPa
Hmdx Definition


Wind Chill Definition


Weather Definition


00:00 12.9 9.5 80 0.0 28 5   100.99     LegendNANA
01:00 11.8 9.7 87 0.0 16 7   101.00     LegendNANA
02:00 11.9 9.9 87 0.0 21 3   101.06     LegendNANA
03:00 11.2 10.1 93 0.8 20 4   101.05     LegendNANA
04:00 10.7 10.0 95 0.9 23 4   101.02     LegendNANA
05:00 10.8 10.2 96 0.9 24 6   101.01     LegendNANA
06:00 10.0 9.3 96 0.0 24 5   101.03     LegendNANA
07:00 10.7 10.2 97 0.0 24 8   101.01     LegendNANA
08:00 12.5 11.0 90 0.0 24 8   101.04     LegendNANA
09:00 12.8 10.4 85 0.0 25 5   101.07     LegendNANA
10:00 14.7 9.9 73 0.0 24 8   101.10     LegendNANA
11:00 14.2 9.5 73 0.0 24 4   101.10     LegendNANA
12:00 14.2 10.2 77 0.0 24 6   101.07     LegendNANA
13:00 12.8 10.0 84 0.7 24 7   101.05     LegendNANA
14:00 13.6 10.4 81 0.0 23 8   101.02     LegendNANA
15:00 14.0 9.9 76 0.0 23 9   101.01     LegendNANA
16:00 12.6 9.8 83 0.0 21 7   101.00     LegendNANA
17:00 12.2 10.9 92 0.3 22 5   100.98     LegendNANA
18:00 12.0 10.3 89 0.0 22 4   101.00     LegendNANA
19:00 11.7 10.2 91 0.0 24 6   101.03     LegendNANA
20:00 11.4 10.1 92 0.0 27 3   101.04     LegendNANA
21:00 11.1 10.1 94 0.0 27 3   101.06     LegendNANA
22:00 10.8 9.5 92 0.2 0 1   101.10     LegendNANA
23:00 10.6 9.9 96 0.0 33 4   101.14     LegendNANA

Notes on Data Quality.

Legend

  • E = Estimated
  • M = Missing
  • NA = Not Available*
  • [empty] = Indicates an unobserved value
Date modified: